Simultaneous Nadir Overpasses (SNOs) Predictions

Prediction of SNOs between AQUA and NOAA-19 Satellite Orbit:

Table of predicted SNOs for the next 14.0 days since TLE Epoch: 10/22/2022
Index Date (AQUA) Time (AQUA) Lat,Lon (AQUA) SZA (AQUA ) Date (NOAA-19) Time (NOAA-19) Lat,Lon (NOAA-19) SZA (NOAA-19 ) Distance(km) Time Diff (sec)
1 10/22/2022 14:47:43 -77.15, 124.17 91.55 10/22/2022 14:46:31 -77.14, 124.21 91.55 1.13 72
2 10/22/2022 15:37:11 77.21, -68.43 88.53 10/22/2022 15:37:35 77.17, -68.44 88.49 4.25 24
3 10/24/2022 20:20:40 77.04,-138.65 89.10 10/24/2022 20:19:29 76.96,-139.76 89.09 28.95 71
4 10/24/2022 21:10:08 -77.17, 28.47 90.74 10/24/2022 21:10:19 -77.18, 28.49 90.73 0.58 11
5 10/27/2022 02:43:07 77.18, 125.22 90.03 10/27/2022 02:43:13 77.16, 125.23 90.01 2.63 6
6 10/29/2022 08:16:03 -77.13,-137.83 89.28 10/29/2022 08:15:57 -77.16,-137.84 89.25 3.23 6
7 10/31/2022 13:49:01 77.14, -41.07 91.46 10/31/2022 13:48:50 77.16, -41.01 91.48 2.53 11
8 10/31/2022 14:38:30 -77.31, 125.89 88.34 10/31/2022 14:39:41 -77.35, 127.16 88.36 31.31 71
9 11/02/2022 19:21:57 -77.13, 55.75 87.85 11/02/2022 19:21:35 -77.13, 55.77 87.84 0.75 22
10 11/02/2022 20:11:24 77.16,-136.72 92.20 11/02/2022 20:12:38 77.16,-136.86 92.20 3.66 74
11 11/05/2022 00:54:54 77.13, 152.52 92.85 11/05/2022 00:54:27 77.13, 152.63 92.85 2.71 27



Historial Predications of SNOs between AQUA and NOAA-19
